Weather History for KPIH - July, 2012

Change the Weather History Date:

Monday, July 2, 2012

  Actual Average Record
Temperature  
Mean Temperature 74 °F 67 °F  
Max Temperature 90 °F 84 °F 100 °F (1996)
Min Temperature 57 °F 50 °F 35 °F (1997)
Degree Days  
Heating Degree Days 0 1  
Month to date heating degree days 0 3  
Since 1 June heating degree days 132 134  
Since 1 July heating degree days 0 3  
Cooling Degree Days 9 4  
Month to date cooling degree days 12 7  
Year to date cooling degree days 97 58  
Since 1 June cooling degree days 93 53  
Growing Degree Days 24 (Base 50)    
Moisture  
Dew Point 44 °F    
Average Humidity 42    
Maximum Humidity 67    
Minimum Humidity 17    
Precipitation  
Precipitation 0.00 in 0.02 in 0.94 in (2009)
Month to date precipitation 0.00 0.04  
Year to date precipitation 5.51 6.86  
Snow  
Snow 0.00 in - - ()
Month to date snowfall 0.0  
Since 1 June snowfall T  
Since 1 July snowfall 0.0  
Snow Depth 0.00 in    
Sea Level Pressure  
Sea Level Pressure 29.80 in    
Wind  
Wind Speed 7 mph (West)    
Max Wind Speed 14 mph    
Max Gust Speed 18 mph    
Visibility 10 miles    
Events      
T = Trace of Precipitation, MM = Missing Value Source: NWS Daily Summary

Daily Weather History Graph

Daily Weather History Graph

Search for Another Location

Airport or City:

Trip Planner

Search our weather history database for the weather conditions in past years. The results will help you decide how hot, cold, wet, or windy it might be!

Date:

Astronomy

Jul. 02, 2012 Rise Set
Actual Time 5:56 AM MDT 9:12 PM MDT
Civil Twilight 5:21 AM MDT 9:47 PM MDT
Nautical Twilight 4:35 AM MDT 10:32 PM MDT
Astronomical Twilight 3:40 AM MDT 11:28 PM MDT
Moon 8:18 PM MDT (7/2) 4:47 AM MDT (7/2)
Length of Visible Light 16h 26m
Length of Day
15h 16m
Waxing Gibbous, 98% of the Moon is Illuminated
Jul 2
Waxing Gibbous
Jul 3
Full
Jul 10
Last Quarter
Jul 18
New
Jul 26
First Quarter

Hourly Weather History & Observations

Time (MDT) Temp. Dew Point Humidity Pressure Visibility Wind Dir Wind Speed Gust Speed Precip Events Conditions
12:53 AM 69.1 °F 45.0 °F 42% 29.80 in 10.0 mi SW 11.5 mph - N/A   Clear
1:53 AM 68.0 °F 44.1 °F 42% 29.80 in 10.0 mi SW 12.7 mph - N/A   Clear
2:53 AM 57.0 °F 46.9 °F 69% 29.83 in 10.0 mi West 5.8 mph - N/A   Clear
3:53 AM 61.0 °F 45.0 °F 56% 29.83 in 10.0 mi SW 9.2 mph - N/A   Clear
4:53 AM 61.0 °F 44.1 °F 54% 29.84 in 10.0 mi SSW 9.2 mph - N/A   Clear
5:53 AM 57.9 °F 43.0 °F 58% 29.87 in 10.0 mi SSW 6.9 mph - N/A   Clear
6:53 AM 61.0 °F 44.1 °F 54% 29.87 in 10.0 mi SW 8.1 mph - N/A   Clear
7:53 AM 64.9 °F 45.0 °F 48% 29.89 in 10.0 mi SW 11.5 mph - N/A   Clear
8:53 AM 69.1 °F 46.0 °F 44% 29.90 in 10.0 mi WSW 11.5 mph - N/A   Clear
9:53 AM 71.1 °F 48.0 °F 44% 29.90 in 10.0 mi WSW 6.9 mph - N/A   Clear
10:53 AM 75.0 °F 48.9 °F 40% 29.88 in 10.0 mi WSW 8.1 mph - N/A   Clear
11:53 AM 77.0 °F 48.0 °F 36% 29.86 in 10.0 mi Variable 3.5 mph - N/A   Clear
12:53 PM 81.0 °F 46.0 °F 29% 29.86 in 10.0 mi West 9.2 mph - N/A   Clear
1:53 PM 82.9 °F 48.9 °F 31% 29.83 in 10.0 mi WNW 9.2 mph - N/A   Clear
2:53 PM 86.0 °F 46.0 °F 25% 29.83 in 10.0 mi NNW 9.2 mph - N/A   Partly Cloudy
3:53 PM 86.0 °F 46.0 °F 25% 29.80 in 10.0 mi NW 8.1 mph - N/A   Partly Cloudy
4:53 PM 88.0 °F 44.1 °F 22% 29.77 in 10.0 mi NNW 4.6 mph - N/A   Scattered Clouds
5:53 PM 89.1 °F 43.0 °F 20% 29.74 in 10.0 mi NNW 5.8 mph - N/A   Partly Cloudy
6:53 PM 89.1 °F 43.0 °F 20% 29.72 in 10.0 mi NW 4.6 mph - N/A   Partly Cloudy
7:53 PM 89.1 °F 39.9 °F 18% 29.70 in 10.0 mi NNE 4.6 mph - N/A   Partly Cloudy
8:53 PM 79.0 °F 52.0 °F 39% 29.70 in 10.0 mi East 6.9 mph - N/A   Clear
9:53 PM 75.0 °F 45.0 °F 34% 29.71 in 10.0 mi Calm Calm - N/A   Clear
10:53 PM 72.0 °F 37.0 °F 28% 29.70 in 10.0 mi East 5.8 mph - N/A   Clear
11:53 PM 75.0 °F 28.9 °F 18% 29.68 in 10.0 mi Calm Calm - N/A   Clear